Back to catalog

STARLINK-35714

AliveCommunicationsVLEO
NORAD 66214·PAYLOAD·🇺🇸 United States

Launched Oct 28, 2025 from Vandenberg Space Force Base

Loading…

Next Passes (next 24 hours)

TLE

FreshSource: CelesTrak SupGP

Epoch: Sep 14, 2026, 14:50 UTC

1 66214C 25244J   26257.61854167 -.00041704  00000+0 -12320-2 0  2570
2 66214  53.1590  70.8838 0001290  94.4117 356.1867 15.34415645    11

Track STARLINK-35714 in real time with AllMySat

Download on the App Store